GW6791 Weather Reports


time (UTC)temp
C
wind
direction
speed
KPH
gust
KPH
rain 1hr
cm
rain 24hr
cm
rain mn
cm
humidity
%
barometer
mb
20260509000417 20 215 0.0 1.6 0.00 0.00 0.00 39 1046.7
20260508235910 19 180 0.0 1.6 0.00 0.00 0.00 39 1046.7
20260508235408 19 217 3.2 4.8 0.00 0.00 0.00 38 1046.7
20260508234905 19 156 1.6 3.2 0.00 0.00 0.00 39 1046.9
20260508234401 20 148 0.0 3.2 0.00 0.00 0.00 37 1047.0
20260508233900 20 162 1.6 4.8 0.00 0.00 0.00 37 1046.9
20260508233359 20 189 3.2 4.8 0.00 0.00 0.00 36 1046.6
20260508232855 20 208 0.0 1.6 0.00 0.00 0.00 36 1047.1
20260508232352 21 196 3.2 9.7 0.00 0.00 0.00 36 1047.0
20260508231850 21 187 6.4 11.3 0.00 0.00 0.00 35 1047.1
20260508231346 21 193 6.4 11.3 0.00 0.00 0.00 35 1047.0
20260508230843 21 232 3.2 4.8 0.00 0.00 0.00 35 1047.1
20260508230339 21 127 1.6 6.4 0.00 0.00 0.00 35 1046.9
20260508225837 21 187 3.2 4.8 0.00 0.00 0.00 33 1047.0
20260508225333 21 219 8.0 11.3 0.00 0.00 0.00 32 1046.9
20260508224832 21 165 1.6 11.3 0.00 0.00 0.00 34 1047.3
20260508224329 21 186 3.2 3.2 0.00 0.00 0.00 33 1047.1
20260508223826 21 144 3.2 4.8 0.00 0.00 0.00 34 1047.1
20260508223323 22 159 3.2 11.3 0.00 0.00 0.00 33 1047.0
20260508222821 22 172 0.0 3.2 0.00 0.00 0.00 36 1047.0
20260508222318 22 197 6.4 12.9 0.00 0.00 0.00 33 1046.9
20260508221815 22 224 3.2 11.3 0.00 0.00 0.00 33 1047.0
20260508221310 22 213 3.2 4.8 0.00 0.00 0.00 34 1047.0
20260508220807 22 171 3.2 6.4 0.00 0.00 0.00 34 1046.9
20260508220303 22 132 3.2 6.4 0.00 0.00 0.00 32 1047.1
20260508215800 22 177 9.7 11.3 0.00 0.00 0.00 32 1047.2
20260508215256 22 113 3.2 6.4 0.00 0.00 0.00 35 1047.0
20260508214754 22 152 4.8 6.4 0.00 0.00 0.00 32 1047.0
20260508214251 22 179 4.8 14.5 0.00 0.00 0.00 37 1047.0
20260508213747 22 222 9.7 14.5 0.00 0.00 0.00 34 1046.7
20260508213244 22 143 0.0 3.2 0.00 0.00 0.00 35 1046.6
20260508212740 22 166 4.8 9.7 0.00 0.00 0.00 33 1046.7
20260508212237 22 153 1.6 6.4 0.00 0.00 0.00 34 1046.5
20260508211733 23 221 6.4 17.7 0.00 0.00 0.00 32 1047.1
20260508211228 23 173 1.6 4.8 0.00 0.00 0.00 33 1047.1
20260508210726 23 149 1.6 3.2 0.00 0.00 0.00 37 1047.1
20260508210223 22 133 1.6 3.2 0.00 0.00 0.00 35 1047.3
20260508205720 22 205 3.2 9.7 0.00 0.00 0.00 33 1047.2
20260508205216 23 135 1.6 6.4 0.00 0.00 0.00 31 1047.5
20260508204712 22 132 1.6 4.8 0.00 0.00 0.00 38 1047.6
20260508204209 22 220 8.0 11.3 0.00 0.00 0.00 32 1047.6
20260508203705 22 153 4.8 11.3 0.00 0.00 0.00 33 1047.7
20260508203201 22 195 9.7 14.5 0.00 0.00 0.00 34 1047.8
20260508202657 22 228 3.2 3.2 0.00 0.00 0.00 33 1047.8
20260508202155 22 163 4.8 14.5 0.00 0.00 0.00 34 1048.1
20260508201652 22 192 3.2 4.8 0.00 0.00 0.00 34 1048.2
20260508201148 22 195 6.4 9.7 0.00 0.00 0.00 34 1048.2
20260508200645 22 150 1.6 6.4 0.00 0.00 0.00 35 1048.5
20260508200141 23 257 6.4 9.7 0.00 0.00 0.00 33 1048.4
20260508195638 22 235 1.6 3.2 0.00 0.00 0.00 38 1048.3
20260508195134 22 220 6.4 9.7 0.00 0.00 0.00 34 1048.2
20260508194631 22 158 3.2 12.9 0.00 0.00 0.00 37 1048.2
20260508194128 23 142 3.2 4.8 0.00 0.00 0.00 36 1047.9
20260508193625 22 108 1.6 1.6 0.00 0.00 0.00 36 1048.3
20260508193121 22 105 6.4 9.7 0.00 0.00 0.00 37 1048.3
20260508192618 22 171 3.2 6.4 0.00 0.00 0.00 35 1048.2
20260508192115 22 180 3.2 12.9 0.00 0.00 0.00 34 1048.5
20260508191612 22 182 8.0 16.1 0.00 0.00 0.00 35 1048.5
20260508191109 23 206 6.4 11.3 0.00 0.00 0.00 33 1048.4
20260508190606 22 231 3.2 3.2 0.00 0.00 0.00 35 1048.6
20260508185559 22 205 1.6 3.2 0.00 0.00 0.00 36 1048.7
20260508185057 22 151 3.2 11.3 0.00 0.00 0.00 35 1048.7
20260508184554 21 280 0.0 4.8 0.00 0.00 0.00 42 1048.7
20260508184051 21 224 1.6 6.4 0.00 0.00 0.00 37 1049.0
20260508183547 21 163 0.0 3.2 0.00 0.00 0.00 42 1049.0
20260508183044 21 183 1.6 6.4 0.00 0.00 0.00 39 1049.0
20260508182540 21 194 1.6 9.7 0.00 0.00 0.00 35 1049.1
20260508182038 21 187 6.4 12.9 0.00 0.00 0.00 37 1049.3
20260508181537 21 246 4.8 6.4 0.00 0.00 0.00 35 1049.3
20260508181036 21 209 3.2 4.8 0.00 0.00 0.00 37 1049.7
20260508180532 21 144 6.4 14.5 0.00 0.00 0.00 38 1049.7
20260508180028 20 145 3.2 16.1 0.00 0.00 0.00 38 1049.8
20260508175525 21 184 12.9 14.5 0.00 0.00 0.00 36 1050.0
20260508175022 21 111 1.6 11.3 0.00 0.00 0.00 42 1050.1
20260508174520 21 171 4.8 12.9 0.00 0.00 0.00 36 1050.2
20260508174017 21 192 6.4 11.3 0.00 0.00 0.00 36 1050.1
20260508173514 21 131 1.6 6.4 0.00 0.00 0.00 39 1050.2
20260508173010 20 277 1.6 9.7 0.00 0.00 0.00 40 1050.4
20260508172507 20 195 8.0 22.5 0.00 0.00 0.00 36 1050.5
20260508172003 20 215 12.9 14.5 0.00 0.00 0.00 38 1050.4
20260508171500 20 231 0.0 14.5 0.00 0.00 0.00 34 1050.9
20260508170956 20 281 9.7 11.3 0.00 0.00 0.00 37 1050.9
20260508170454 20 107 3.2 3.2 0.00 0.00 0.00 38 1050.9
20260508165950 20 241 9.7 12.9 0.00 0.00 0.00 40 1051.0
20260508165449 21 149 1.6 9.7 0.00 0.00 0.00 42 1051.1
20260508164944 21 96 3.2 4.8 0.00 0.00 0.00 37 1051.2
20260508164441 21 142 0.0 3.2 0.00 0.00 0.00 40 1051.6
20260508163938 20 155 1.6 4.8 0.00 0.00 0.00 41 1051.5
20260508163436 20 114 3.2 4.8 0.00 0.00 0.00 43 1051.5
20260508162931 20 222 14.5 16.1 0.00 0.00 0.00 43 1051.6
20260508162429 20 280 3.2 3.2 0.00 0.00 0.00 41 1051.6
20260508161926 20 164 3.2 4.8 0.00 0.00 0.00 41 1051.7
20260508161423 20 182 1.6 6.4 0.00 0.00 0.00 43 1051.8
20260508160920 20 155 3.2 4.8 0.00 0.00 0.00 45 1051.7
20260508160419 18 211 0.0 3.2 0.00 0.00 0.00 42 1051.8
20260508155915 19 232 9.7 14.5 0.00 0.00 0.00 40 1051.9
20260508155412 19 206 4.8 6.4 0.00 0.00 0.00 41 1051.9
20260508154909 18 213 6.4 9.7 0.00 0.00 0.00 42 1052.0
20260508154407 18 206 3.2 11.3 0.00 0.00 0.00 44 1052.3
20260508153903 19 209 3.2 6.4 0.00 0.00 0.00 40 1052.2
20260508153400 18 180 1.6 11.3 0.00 0.00 0.00 42 1052.4
20260508152856 18 203 3.2 11.3 0.00 0.00 0.00 44 1052.5
20260508152353 18 247 1.6 6.4 0.00 0.00 0.00 42 1052.6
20260508151849 18 229 4.8 9.7 0.00 0.00 0.00 44 1052.4
20260508151346 17 208 4.8 6.4 0.00 0.00 0.00 44 1052.3
20260508150842 17 209 6.4 11.3 0.00 0.00 0.00 45 1052.5
20260508150340 17 195 8.0 14.5 0.00 0.00 0.00 44 1052.6
20260508145835 17 224 12.9 16.1 0.00 0.00 0.00 45 1052.6
20260508145332 17 229 8.0 11.3 0.00 0.00 0.00 44 1052.6
20260508144829 17 203 8.0 11.3 0.00 0.00 0.00 42 1052.6
20260508144327 17 191 3.2 9.7 0.00 0.00 0.00 47 1052.6
20260508143824 17 199 3.2 6.4 0.00 0.00 0.00 45 1052.7
20260508143321 17 204 3.2 6.4 0.00 0.00 0.00 51 1052.5
20260508142818 16 193 6.4 11.3 0.00 0.00 0.00 49 1052.5
20260508142315 16 221 3.2 9.7 0.00 0.00 0.00 49 1052.4
20260508141811 16 220 4.8 9.7 0.00 0.00 0.00 49 1052.5
20260508141308 16 175 6.4 9.7 0.00 0.00 0.00 51 1052.5
20260508140805 15 228 3.2 9.7 0.00 0.00 0.00 51 1052.5
20260508140302 15 201 3.2 6.4 0.00 0.00 0.00 52 1052.6
20260508135758 15 213 1.6 6.4 0.00 0.00 0.00 51 1052.6
20260508135254 15 187 4.8 9.7 0.00 0.00 0.00 52 1052.5
20260508134750 15 197 3.2 4.8 0.00 0.00 0.00 53 1052.6
20260508134247 15 180 3.2 6.4 0.00 0.00 0.00 54 1052.7
20260508133744 14 231 0.0 3.2 0.00 0.00 0.00 56 1052.8
20260508133242 13 206 1.6 4.8 0.00 0.00 0.00 58 1052.7
20260508132739 13 201 3.2 6.4 0.00 0.00 0.00 56 1052.7
20260508132236 13 215 1.6 1.6 0.00 0.00 0.00 61 1052.6
20260508131732 13 200 1.6 3.2 0.00 0.00 0.00 58 1052.7
20260508131229 12 231 1.6 3.2 0.00 0.00 0.00 61 1052.5
20260508130725 12 190 1.6 4.8 0.00 0.00 0.00 59 1052.5
20260508130223 12 207 1.6 3.2 0.00 0.00 0.00 60 1052.6
20260508125718 12 218 1.6 4.8 0.00 0.00 0.00 60 1052.6
20260508125214 12 214 1.6 3.2 0.00 0.00 0.00 59 1052.4
20260508124713 12 213 1.6 1.6 0.00 0.00 0.00 61 1052.5
20260508124209 12 221 0.0 1.6 0.00 0.00 0.00 64 1052.5
20260508123708 11 185 0.0 1.6 0.00 0.00 0.00 63 1052.5
20260508123206 11 178 0.0 3.2 0.00 0.00 0.00 66 1052.6
20260508122701 10 193 1.6 1.6 0.00 0.00 0.00 66 1052.6
20260508122158 10 214 1.6 3.2 0.00 0.00 0.00 67 1052.5
20260508121656 9 143 0.0 3.2 0.00 0.00 0.00 68 1052.3
20260508121154 8 161 1.6 3.2 0.00 0.00 0.00 70 1052.4
20260508120651 8 145 1.6 1.6 0.00 0.00 0.00 72 1052.5
20260508120150 7 137 0.0 1.6 0.00 0.00 0.00 76 1052.4
20260508115647 7 226 0.0 1.6 0.00 0.00 0.00 79 1052.5
20260508115144 6 121 1.6 3.2 0.00 0.00 0.00 88 1052.4
20260508114641 6 95 1.6 3.2 0.00 0.00 0.00 87 1052.3
20260508114136 5 96 3.2 3.2 0.00 0.00 0.00 88 1052.2
20260508113634 5 101 1.6 1.6 0.00 0.00 0.00 89 1052.1
20260508113133 4 100 1.6 1.6 0.00 0.00 0.00 89 1052.2
20260508112628 4 101 1.6 1.6 0.00 0.00 0.00 90 1052.0
20260508112125 4 100 1.6 3.2 0.00 0.00 0.00 89 1051.8
20260508111622 4 100 1.6 3.2 0.00 0.00 0.00 89 1051.8
20260508111119 3 99 1.6 1.6 0.00 0.00 0.00 88 1051.9
20260508110617 3 99 1.6 1.6 0.00 0.00 0.00 88 1051.9
20260508110114 3 99 1.6 1.6 0.00 0.00 0.00 89 1051.8
20260508105613 3 99 1.6 1.6 0.00 0.00 0.00 89 1051.7
20260508105111 3 99 1.6 1.6 0.00 0.00 0.00 89 1051.7
20260508104608 3 100 1.6 1.6 0.00 0.00 0.00 89 1051.8
20260508104105 3 99 1.6 1.6 0.00 0.00 0.00 88 1051.6
20260508103602 3 99 1.6 1.6 0.00 0.00 0.00 88 1051.7
20260508103059 3 99 1.6 1.6 0.00 0.00 0.00 88 1051.4
20260508102557 3 99 1.6 1.6 0.00 0.00 0.00 88 1051.5
20260508102054 3 98 3.2 3.2 0.00 0.00 0.00 90 1051.5
20260508101552 3 99 1.6 1.6 0.00 0.00 0.00 91 1051.4
20260508101048 3 99 1.6 1.6 0.00 0.00 0.00 91 1051.5
20260508100547 2 99 1.6 1.6 0.00 0.00 0.00 91 1051.3
20260508100043 2 98 1.6 1.6 0.00 0.00 0.00 91 1051.2
20260508095541 2 98 1.6 1.6 0.00 0.00 0.00 91 1051.4
20260508095037 2 99 1.6 1.6 0.00 0.00 0.00 91 1051.4
20260508094534 2 99 1.6 1.6 0.00 0.00 0.00 91 1051.5
20260508094031 2 99 1.6 1.6 0.00 0.00 0.00 91 1051.6
20260508093528 2 100 1.6 1.6 0.00 0.00 0.00 91 1051.6
20260508093026 2 100 1.6 1.6 0.00 0.00 0.00 90 1051.6
20260508092523 3 103 1.6 3.2 0.00 0.00 0.00 91 1051.5
20260508092022 3 105 3.2 3.2 0.00 0.00 0.00 90 1051.6
20260508091519 3 93 1.6 1.6 0.00 0.00 0.00 90 1051.6
20260508091015 3 93 1.6 1.6 0.00 0.00 0.00 90 1051.5
20260508090514 3 93 1.6 3.2 0.00 0.00 0.00 90 1051.5
20260508090010 3 93 1.6 3.2 0.00 0.00 0.00 90 1051.5
20260508085506 3 93 1.6 3.2 0.00 0.00 0.00 90 1051.5
20260508085003 3 93 1.6 1.6 0.00 0.00 0.00 90 1051.8
20260508084500 3 93 1.6 3.2 0.00 0.00 0.00 91 1051.6
20260508083958 3 93 1.6 3.2 0.00 0.00 0.00 91 1051.5
20260508083455 3 92 1.6 3.2 0.00 0.00 0.00 91 1051.7
20260508082950 3 94 1.6 3.2 0.00 0.00 0.00 91 1051.7
20260508082447 3 91 3.2 3.2 0.00 0.00 0.00 91 1051.7
20260508081945 3 91 1.6 3.2 0.00 0.00 0.00 91 1051.8
20260508081442 3 97 3.2 3.2 0.00 0.00 0.00 90 1051.6
20260508080938 3 96 1.6 1.6 0.00 0.00 0.00 90 1051.6
20260508080436 3 97 1.6 1.6 0.00 0.00 0.00 90 1051.8
20260508075932 3 98 1.6 1.6 0.00 0.00 0.00 89 1051.8
20260508075429 3 99 1.6 3.2 0.00 0.00 0.00 89 1051.5
20260508074927 3 95 1.6 1.6 0.00 0.00 0.00 88 1051.6
20260508074424 5 92 1.6 3.2 0.00 0.00 0.00 85 1051.6
20260508073921 5 117 1.6 1.6 0.00 0.00 0.00 87 1051.7
20260508073419 4 112 1.6 1.6 0.00 0.00 0.00 89 1051.5
20260508072916 4 107 3.2 3.2 0.00 0.00 0.00 88 1051.5
20260508072412 4 111 1.6 3.2 0.00 0.00 0.00 88 1051.7
20260508071909 4 109 1.6 3.2 0.00 0.00 0.00 89 1051.4
20260508071407 4 107 3.2 3.2 0.00 0.00 0.00 88 1051.8
20260508070904 4 111 3.2 3.2 0.00 0.00 0.00 88 1051.7
20260508070402 4 112 3.2 4.8 0.00 0.00 0.00 86 1051.7
20260508065900 5 107 3.2 3.2 0.00 0.00 0.00 85 1051.8
20260508065358 5 111 1.6 1.6 0.00 0.00 0.00 85 1051.7
20260508064856 5 112 1.6 1.6 0.00 0.00 0.00 84 1051.6
20260508064353 5 102 3.2 3.2 0.00 0.00 0.00 83 1051.6
20260508063851 5 113 1.6 3.2 0.00 0.00 0.00 79 1051.8
20260508063348 6 123 1.6 1.6 0.00 0.00 0.00 76 1051.8
20260508062845 6 219 0.0 0.0 0.00 0.00 0.00 74 1051.9
20260508062343 6 229 3.2 3.2 0.00 0.00 0.00 75 1051.6
20260508061839 6 231 3.2 3.2 0.00 0.00 0.00 77 1051.7
20260508061337 5 268 1.6 3.2 0.00 0.00 0.00 79 1051.7
20260508060833 5 266 1.6 1.6 0.00 0.00 0.00 82 1051.9
20260508060331 5 257 1.6 3.2 0.00 0.00 0.00 84 1052.0
20260508055826 5 105 1.6 1.6 0.00 0.00 0.00 85 1051.9
20260508055324 5 109 3.2 3.2 0.00 0.00 0.00 82 1051.8
20260508054820 5 142 0.0 1.6 0.00 0.00 0.00 82 1052.0
20260508054318 5 251 0.0 0.0 0.00 0.00 0.00 82 1052.1
20260508053814 6 256 1.6 1.6 0.00 0.00 0.00 82 1051.9
20260508053312 5 246 1.6 1.6 0.00 0.00 0.00 84 1052.1
20260508052809 5 104 0.0 1.6 0.00 0.00 0.00 86 1052.0
20260508052307 5 103 1.6 1.6 0.00 0.00 0.00 86 1052.1
20260508051802 5 106 1.6 1.6 0.00 0.00 0.00 85 1052.1
20260508051257 5 110 1.6 3.2 0.00 0.00 0.00 84 1052.0
20260508050754 5 114 3.2 3.2 0.00 0.00 0.00 83 1052.1
20260508050252 5 116 0.0 1.6 0.00 0.00 0.00 84 1052.1
20260508045747 6 116 0.0 1.6 0.00 0.00 0.00 81 1052.0
20260508045245 6 116 0.0 0.0 0.00 0.00 0.00 80 1052.0
20260508044742 6 117 0.0 1.6 0.00 0.00 0.00 81 1051.9
20260508044239 6 116 3.2 3.2 0.00 0.00 0.00 81 1051.9
20260508043735 6 106 3.2 3.2 0.00 0.00 0.00 79 1051.8
20260508043233 6 109 0.0 0.0 0.00 0.00 0.00 78 1051.8
20260508042729 6 108 1.6 1.6 0.00 0.00 0.00 78 1052.0
20260508042227 7 109 0.0 0.0 0.00 0.00 0.00 76 1051.8
20260508041723 7 109 0.0 0.0 0.00 0.00 0.00 70 1052.0
20260508041220 7 109 1.6 1.6 0.00 0.00 0.00 75 1052.0
20260508040716 7 106 3.2 3.2 0.00 0.00 0.00 75 1051.9
20260508040214 7 99 1.6 3.2 0.00 0.00 0.00 74 1051.8
20260508035711 7 98 0.0 1.6 0.00 0.00 0.00 76 1051.9
20260508035209 7 98 0.0 0.0 0.00 0.00 0.00 74 1051.8
20260508034704 7 98 3.2 3.2 0.00 0.00 0.00 75 1051.9
20260508034202 8 98 3.2 3.2 0.00 0.00 0.00 70 1051.9
20260508033659 8 109 1.6 1.6 0.00 0.00 0.00 65 1052.0
20260508033157 8 109 1.6 1.6 0.00 0.00 0.00 63 1051.8
20260508032654 8 109 1.6 1.6 0.00 0.00 0.00 68 1051.9
20260508032151 8 109 1.6 1.6 0.00 0.00 0.00 68 1051.9
20260508031648 8 110 1.6 1.6 0.00 0.00 0.00 68 1052.0
20260508031144 8 108 3.2 3.2 0.00 0.00 0.00 69 1051.9
20260508030641 8 108 3.2 3.2 0.00 0.00 0.00 68 1052.0
20260508030139 8 109 3.2 3.2 0.00 0.00 0.00 65 1052.0
20260508025635 9 98 1.6 1.6 0.00 0.00 0.00 61 1052.0
20260508025132 10 98 1.6 1.6 0.00 0.00 0.00 61 1052.1
20260508024627 10 99 0.0 1.6 0.00 0.00 0.00 54 1052.0
20260508024125 11 99 0.0 1.6 0.00 0.00 0.00 53 1051.9
20260508023621 10 99 0.0 0.0 0.00 0.00 0.00 48 1051.8
20260508023119 10 99 0.0 1.6 0.00 0.00 0.00 55 1051.8
20260508022614 10 99 1.6 1.6 0.00 0.00 0.00 54 1051.9
20260508022112 10 98 1.6 1.6 0.00 0.00 0.00 54 1051.7
20260508021607 11 147 1.6 1.6 0.00 0.00 0.00 52 1051.5
20260508021104 11 257 0.0 0.0 0.00 0.00 0.00 48 1051.8
20260508020601 10 257 0.0 0.0 0.00 0.00 0.00 49 1051.7
20260508020059 10 257 0.0 0.0 0.00 0.00 0.00 50 1051.5
20260508015556 11 257 0.0 0.0 0.00 0.00 0.00 49 1051.6
20260508015053 11 257 0.0 0.0 0.00 0.00 0.00 48 1051.5
20260508014549 11 257 0.0 0.0 0.00 0.00 0.00 47 1051.3
20260508014046 12 257 0.0 1.6 0.00 0.00 0.00 46 1051.3
20260508013542 12 257 0.0 1.6 0.00 0.00 0.00 45 1051.4
20260508013039 12 257 1.6 1.6 0.00 0.00 0.00 45 1051.1
20260508012536 12 253 1.6 1.6 0.00 0.00 0.00 45 1051.1
20260508012034 12 258 1.6 1.6 0.00 0.00 0.00 45 1051.1
20260508011532 12 258 1.6 1.6 0.00 0.00 0.00 45 1051.1
20260508011029 12 257 1.6 1.6 0.00 0.00 0.00 45 1051.1
20260508010525 12 253 1.6 1.6 0.00 0.00 0.00 45 1051.1
20260508010023 12 250 1.6 1.6 0.00 0.00 0.00 45 1051.1
20260508005519 12 250 1.6 1.6 0.00 0.00 0.00 44 1050.8
20260508005016 12 245 1.6 1.6 0.00 0.00 0.00 44 1050.7
20260508004513 13 240 1.6 1.6 0.00 0.00 0.00 44 1050.9
20260508004010 13 236 1.6 1.6 0.00 0.00 0.00 43 1050.8
20260508003506 13 248 1.6 3.2 0.00 0.00 0.00 42 1050.4
20260508003003 13 252 1.6 1.6 0.00 0.00 0.00 42 1050.5
20260508002459 13 247 1.6 3.2 0.00 0.00 0.00 42 1050.7
20260508001956 13 259 1.6 3.2 0.00 0.00 0.00 41 1050.5
20260508001452 14 253 1.6 3.2 0.00 0.00 0.00 42 1050.3
20260508000949 15 266 3.2 4.8 0.00 0.00 0.00 40 1050.3